Погода в Конотопе

Погода в Конотопе : погода сейчас, прогноз погоды и архив. Всё, что Вы хотите узнать о погоде в Конотопе!

Хотите узнать прогноз погоды в Конотопе? Тогда Вам сюда: Погода в Конотопе

Поиск расширенной информации на нашем сайте:

Другие новости

Новости СМИ2

Главная страница сайта

Новости сайта

03.07.2017

Напоминаем, что на нашем специализированном сайте Метеоцентр.Азия вы можете получить высокодетализированные автоматические прогнозы погоды по пунктам России, СНГ и мира в авиационном формате (включающие направление и скорость ветра, видимость, явления погоды, количество и форму облачности, нижнюю и верхнюю границу облачности).


Погода в Конотопе - сегодня

Время (UTC), дата Ветер
(°,м/с) 
Видим.   Явления Облачность Т
(°С)
Тd
(°С)
f(%) Тe
(°С)
Pmin
(гПа)
dP
(гПа)
Po
(мм)
O2
(г/м3)
Тmin Tmax R s Состояние
почвы
15 17.04.18 220 (ЮЗ) 20000 м    9/0 средняя, верхняя 
[Ac trans|Ci fib]
+18.1 -0.7 28 +19  1017.1  -1.1  750  283           
18 17.04.18 220 (ЮЗ) 10 км    10/0 средняя 
[Ac As]
+15 +2.8 44 +16  1017.4  0.1  750  286    +18.6       
00 18.04.18 220 (ЮЗ) 10 км    10/0 средняя 
[Ac As]
+13.6 +5.5 58 +14  1015.7  -1.1  748  286           
03 18.04.18 270 (З) 10 км    10/10 660 м кучево-дожд. 
[Cb cap]
+13.9 +10 77 +15  1015.2  -0.4  748  285           
06 18.04.18 310 (СЗ) 10 км  в посл. час ливневой дождь  10/10 540 м кучево-дожд. 
[Cb cap]
+10.6 +7.5 81 +10  1017.9  2.4  750  290  +10.3    0.0     
09 18.04.18 310 (СЗ) 20000 м    3/0 средняя 
[Ac trans]
+15.1 +3.5 46 +15  1018.1  0.5  750  286           
12 18.04.18 280 (З) 20000 м    4/4 1000 м 
[Cu hum]
+17.6 +0.8 32 +18  1017.1  -0.9  750  284           
15 18.04.18 290 (З) 20000 м    6/3 600 м средняя, верхняя 
[Cu hum|Ac trans|Ci fib]
+15.9 +2.9 42 +16  1016.6  -0.6  749  285           
18 18.04.18 280 (З) 10 км  {ливн. осадки}  9/0 средняя, верхняя 
[Ac trans|Ci fib]
+9.6 +7 84 +10  1017.7  0.7  750  291    +18.2     
21 18.04.18 250 (З) 10 км    10/0 средняя 
[Ac As]
+10.1 +7.4 83 +10  1015.4  -2.2  748  289           
00 19.04.18 290 (З) 10 км    6/0 средняя 
[Ac trans]
+10.9 +4.2 63 +10  1013  -2.3  746  289           
03 19.04.18 280 (З) 4000 м  слаб. дождь  10/0 средняя 
[Ac As]
+10.7 +4.2 64 +10  1010.4  -2.6  744  288           
06 19.04.18 310 (СЗ) 4000 м  слаб. дождь  10/0 средняя 
[Ac As]
+9.3 +6.7 84 +9  1009.5  -0.9  744  289  +9    0.5     
09 19.04.18 330 (СЗ) 4000 м  слаб. дождь  10/8 540 м средняя 
[Frnb|As op]
+9.5 +6 79 +8  1009.2  -0.3  743  289           
12 19.04.18 350 (С) 4000 м  слаб. дождь  10/9 570 м средняя 
[Frnb|As op]
+9.4 +6.6 83 +8  1009.1  -0.1  743  288         
15 19.04.18 350 (С) 4000 м  слаб. дождь  10/8 570 м средняя 
[Frnb|As op]
+8.4 +7.5 94 +8  1009.8  0.6  744  289           
18 19.04.18 330 (СЗ) 10 км  {дождь}  9/0 средняя, верхняя 
[Ac trans|Ci fib]
+7.4 +5.1 85 +6  1011.1  1.2  745  291    +9.9     
21 19.04.18 340 (С) 10 км    ясно 
+7.5 +5 84 +6  1012.2  1.1  746  292           
00 20.04.18 330 (СЗ) 10 км    ясно 
+7.3 +4.6 83 +6  1012.5  0.3  746  292           
03 20.04.18 330 (СЗ) 10 км    1/0 средняя 
[Ac trans]
+6.4 +3.3 81 +5  1013.9  1.3  747  293           
06 20.04.18 350 (С) 10 км    8/0 верхняя 
[Ci fib]
+9.5 +3.8 68 +8  1015.2  1.5  748  291  +6.2         
12 20.04.18 360 (С) 20000 м    6/6 600 м 
[Sc diur, vesp]
+15.7 -1.1 32 +15  1016.6  0.8  749  286           
15 20.04.18 010 (С) 20000 м    8/3 1000 м верхняя 
[Sc diur, vesp|Ci fib]
+15.9 -1.9 29 +16  1016.5  -0.1  749  285           
18 20.04.18 тихо ()   20000 м    8/0 средняя, верхняя 
[Ac trans|Ci fib]
+11.8 +2 51 +12  1017.7  750  289    +16.1       
21 20.04.18 270 (З) 20000 м    4/0 верхняя 
[Ci fib]
+8.9 +1.9 61 +9  1017.8  -0.1  750  292           
Время (UTC), дата Ветер
(°,м/с) 
Видим.   Явления Облачность Т
(°С)
Тd
(°С)
f(%) Тe
(°С)
Pmin
(гПа)
dP
(гПа)
Po
(мм)
O2
(г/м3)
Тmin Tmax R s Состояние
почвы

Для получения пояснительной информации подведите курсор к названию столбца.

ПОГОДА в Конотопе - архив

Всё, что Вы хотите узнать о погоде в Конотопе - удобно и подробно!

Выберите нужную дату (начиная с 1 января 2015* года) и нажмите кнопку "Найти".
Будут отображены архивные сводки погоды по пункту Конотоп, начиная с указанной даты.


Отображать данные в формате CSV (для использования в таблицах Excel)


Внимание! Наш архив погоды предназначен исключительно для личного некоммерческого использования в познавательных целях. Если Вам необходимы официальные справки о состоянии погоды (для производственных, юридических, коммерческих и т.п. целей), обращайтесь в органы Росгидромета.

*Примечание: данная дата относится к архиву по метеостанциям СССР (Россия, СНГ, Балтия).
Архив по метеостанциям Зарубежной Европы и Азии (кроме Китая) хранится 10 дней, по другим регионам земного шара (Китай, Африка, Америка, Австралия, Океания) - 1 день.

Конотоп - район местоположения метеостанции


Название, широта, долгота, высота метеостанции:
Конотоп 51.2°ш. 33.2°д. 149 м над ур. моря [Украина]

Дополнительная информация

В oтличие oт бoльшинства пoгoдных сайтoв мы публикуем пoдрoбную метеoинфoрмацию в детальнoм прoфессиoнальнoм фoрмате.

Характеристики температуры и влажнoсти вoздуха измеряются на высoте 2 м в тени вдали oт зданий и деревьев.
Скoрoсть ветра измеряется на высoте 10 м (на урoвне рoста челoвека скoрoсть ветра ниже в 1.5-2 раза). Если метеoстанция нахoдится в гoрoде или в лесу, тo скoрoсть ветра занижена на 2-4 м/с пo сравнению с oткрытым местoм. Скoрoсть ветра над акватoриями крупных рек и oзёр, а также на вершинах хoлмoв на 2-5 м/с выше, чем в oбычных услoвиях.
Атмoсфернoе давление в разных тoчках местнoсти мoжет значительнo oтличаться oт давления на метеoстанции, в зависимoсти oт услoвий рельефа (при пoдъёме на 10 м давление пoнижается примернo на 1 мм рт.ст.).